User: anonymous   Login
Location: Unspecified
(0.0000°N, 0.0000°E)
Time: 07:56:14
(UTC+00:00)
Language:

MERIDIAN 3 - Orbit

View from above orbital plane
View from above orbital plane
View from above satellite
View from above satellite

Ground track
Ground track

The orbit data is extracted from the following two-line orbital elements,

1 37212U 10058A   17143.31990407 +.00000136 +00000-0 +10000-3 0  9992
2 37212 063.1846 077.4782 6937826 274.1720 344.6744 02.00615254048014
Epoch (UTC): 23 May 2017 07:40:39
Eccentricity: 0.6937826
inclination: 63.1846°
perigee height: 1753 km
apogee height: 38601 km
right ascension of ascending node: 77.4782°
argument of perigee: 274.1720°
revolutions per day: 2.00615254
mean anomaly at epoch: 344.6744°
orbit number at epoch: 4801

The dashed part of the orbit path shows where the satellite is in the earth's shadow,  

DLR